Time,TemperatureF,DewpointF,PressureIn,WindDirection,WindDirectionDegrees,WindSpeedMPH,WindSpeedGustMPH,Humidity,HourlyPrecipIn,Conditions,Clouds,dailyrainin,SoftwareType,DateUTC
2013-03-23 00:11:00,44.3,39.0,30.06,North,1,0.0,2.0,80,0.00,,,0.00,weatherlink.com 1.10,2013-03-23 07:11:00,
2013-03-23 00:26:00,43.8,39.0,30.06,North,360,0.0,2.0,83,0.00,,,0.00,weatherlink.com 1.10,2013-03-23 07:26:00,
2013-03-23 00:41:00,42.4,38.0,30.07,NW,323,1.0,4.0,85,0.00,,,0.00,weatherlink.com 1.10,2013-03-23 07:41:00,
2013-03-23 00:56:00,41.5,38.0,30.06,WNW,293,0.0,1.0,86,0.00,,,0.00,weatherlink.com 1.10,2013-03-23 07:56:00,
2013-03-23 01:11:00,40.8,38.0,30.06,WNW,290,0.0,0.0,88,0.00,,,0.00,weatherlink.com 1.10,2013-03-23 08:11:00,
2013-03-23 01:26:00,41.2,38.0,30.07,WNW,290,0.0,1.0,88,0.00,,,0.00,weatherlink.com 1.10,2013-03-23 08:26:00,
2013-03-23 01:41:00,41.3,37.0,30.07,WNW,290,0.0,0.0,86,0.00,,,0.00,weatherlink.com 1.10,2013-03-23 08:41:00,
2013-03-23 01:56:00,40.6,37.0,30.07,WNW,291,0.0,2.0,88,0.00,,,0.00,weatherlink.com 1.10,2013-03-23 08:56:00,
2013-03-23 02:11:00,40.3,37.0,30.07,WNW,291,0.0,2.0,88,0.00,,,0.00,weatherlink.com 1.10,2013-03-23 09:11:00,
2013-03-23 02:27:00,40.5,37.0,30.07,WNW,291,0.0,1.0,88,0.00,,,0.00,weatherlink.com 1.10,2013-03-23 09:27:00,
2013-03-23 02:42:00,41.3,37.0,30.07,NE,53,0.0,2.0,86,0.00,,,0.00,weatherlink.com 1.10,2013-03-23 09:42:00,
2013-03-23 02:57:00,41.8,38.0,30.07,North,9,1.0,2.0,85,0.00,,,0.00,weatherlink.com 1.10,2013-03-23 09:57:00,
2013-03-23 03:12:00,41.4,37.0,30.07,North,8,1.0,3.0,85,0.01,,,0.01,weatherlink.com 1.10,2013-03-23 10:12:00,
2013-03-23 03:27:00,40.8,37.0,30.07,North,7,0.0,1.0,86,0.01,,,0.01,weatherlink.com 1.10,2013-03-23 10:27:00,
2013-03-23 04:12:00,41.3,37.0,30.06,NNE,33,0.0,3.0,86,0.00,,,0.01,weatherlink.com 1.10,2013-03-23 11:12:00,
2013-03-23 04:27:00,42.3,38.0,30.06,North,359,0.0,3.0,83,0.00,,,0.01,weatherlink.com 1.10,2013-03-23 11:27:00,
2013-03-23 04:42:00,41.9,37.0,30.06,North,11,0.0,2.0,83,0.00,,,0.01,weatherlink.com 1.10,2013-03-23 11:42:00,
2013-03-23 04:57:00,41.7,37.0,30.06,North,11,2.0,2.0,84,0.00,,,0.01,weatherlink.com 1.10,2013-03-23 11:57:00,
2013-03-23 05:12:00,41.7,37.0,30.06,NNE,28,1.0,3.0,84,0.00,,,0.01,weatherlink.com 1.10,2013-03-23 12:12:00,
2013-03-23 05:27:00,41.2,37.0,30.06,NNE,23,0.0,0.0,85,0.00,,,0.01,weatherlink.com 1.10,2013-03-23 12:27:00,
2013-03-23 05:42:00,40.0,36.0,30.07,North,354,0.0,3.0,84,0.00,,,0.01,weatherlink.com 1.10,2013-03-23 12:42:00,
2013-03-23 05:57:00,37.6,35.0,30.07,NNW,346,0.0,1.0,89,0.00,,,0.01,weatherlink.com 1.10,2013-03-23 12:57:00,
2013-03-23 06:12:00,36.9,34.0,30.07,NNW,346,0.0,0.0,90,0.00,,,0.01,weatherlink.com 1.10,2013-03-23 13:12:00,
2013-03-23 06:27:00,36.4,34.0,30.08,NW,323,2.0,3.0,92,0.00,,,0.01,weatherlink.com 1.10,2013-03-23 13:27:00,
2013-03-23 06:42:00,37.0,35.0,30.07,NW,312,1.0,3.0,92,0.00,,,0.01,weatherlink.com 1.10,2013-03-23 13:42:00,
2013-03-23 06:57:00,36.8,35.0,30.08,NW,311,0.0,1.0,92,0.00,,,0.01,weatherlink.com 1.10,2013-03-23 13:57:00,
2013-03-23 07:12:00,36.3,34.0,30.09,NW,311,0.0,1.0,92,0.00,,,0.01,weatherlink.com 1.10,2013-03-23 14:12:00,
2013-03-23 07:27:00,36.1,34.0,30.10,NW,312,0.0,0.0,93,0.00,,,0.01,weatherlink.com 1.10,2013-03-23 14:27:00,
2013-03-23 07:42:00,37.4,36.0,30.10,NE,42,0.0,3.0,94,0.00,,,0.01,weatherlink.com 1.10,2013-03-23 14:42:00,
2013-03-23 07:57:00,39.3,37.0,30.11,NE,38,0.0,4.0,91,0.00,,,0.01,weatherlink.com 1.10,2013-03-23 14:57:00,
2013-03-23 08:12:00,40.9,38.0,30.12,North,3,0.0,3.0,88,0.00,,,0.01,weatherlink.com 1.10,2013-03-23 15:12:00,
2013-03-23 08:27:00,42.7,39.0,30.11,WNW,292,2.0,3.0,85,0.00,,,0.01,weatherlink.com 1.10,2013-03-23 15:27:00,
2013-03-23 08:42:00,42.0,38.0,30.11,West,280,0.0,2.0,87,0.00,,,0.01,weatherlink.com 1.10,2013-03-23 15:42:00,
2013-03-23 08:57:00,44.8,39.0,30.11,North,1,0.0,3.0,81,0.00,,,0.01,weatherlink.com 1.10,2013-03-23 15:57:00,
2013-03-23 09:12:00,46.4,40.0,30.11,NE,49,0.0,5.0,78,0.00,,,0.01,weatherlink.com 1.10,2013-03-23 16:12:00,
2013-03-23 09:27:00,47.8,41.0,30.11,North,359,1.0,4.0,76,0.00,,,0.01,weatherlink.com 1.10,2013-03-23 16:27:00,
2013-03-23 09:42:00,49.6,41.0,30.11,NNE,32,1.0,3.0,73,0.00,,,0.01,weatherlink.com 1.10,2013-03-23 16:42:00,
2013-03-23 09:57:00,50.4,41.0,30.11,North,352,0.0,5.0,70,0.00,,,0.01,weatherlink.com 1.10,2013-03-23 16:57:00,
2013-03-23 10:12:00,52.0,42.0,30.11,NNE,15,3.0,6.0,68,0.00,,,0.01,weatherlink.com 1.10,2013-03-23 17:12:00,
2013-03-23 10:27:00,53.2,41.0,30.11,NNE,23,0.0,6.0,64,0.00,,,0.01,weatherlink.com 1.10,2013-03-23 17:27:00,
2013-03-23 10:43:00,55.1,42.0,30.11,NNE,23,5.0,5.0,61,0.00,,,0.01,weatherlink.com 1.10,2013-03-23 17:43:00,
2013-03-23 10:58:00,55.7,40.0,30.11,NNW,342,0.0,5.0,56,0.00,,,0.01,weatherlink.com 1.10,2013-03-23 17:58:00,
2013-03-23 11:13:00,57.9,42.0,30.10,NNE,21,0.0,4.0,55,0.00,,,0.01,weatherlink.com 1.10,2013-03-23 18:13:00,
2013-03-23 11:28:00,59.3,42.0,30.10,ESE,122,0.0,4.0,53,0.00,,,0.01,weatherlink.com 1.10,2013-03-23 18:28:00,
2013-03-23 11:43:00,60.9,42.0,30.10,ENE,71,0.0,3.0,51,0.00,,,0.01,weatherlink.com 1.10,2013-03-23 18:43:00,
2013-03-23 11:58:00,60.0,39.0,30.10,NNW,327,1.0,6.0,47,0.00,,,0.01,weatherlink.com 1.10,2013-03-23 18:58:00,
2013-03-23 12:13:00,61.3,43.0,30.09,ESE,109,0.0,3.0,51,0.00,,,0.01,weatherlink.com 1.10,2013-03-23 19:13:00,
2013-03-23 12:28:00,64.4,39.0,30.09,WSW,248,1.0,5.0,39,0.00,,,0.01,weatherlink.com 1.10,2013-03-23 19:28:00,
2013-03-23 12:43:00,64.5,38.0,30.08,SW,221,1.0,3.0,38,0.00,,,0.01,weatherlink.com 1.10,2013-03-23 19:43:00,
2013-03-23 12:58:00,64.3,41.0,30.07,West,281,1.0,4.0,42,0.00,,,0.01,weatherlink.com 1.10,2013-03-23 19:58:00,
2013-03-23 13:13:00,64.0,38.0,30.07,NNW,343,1.0,4.0,39,0.00,,,0.01,weatherlink.com 1.10,2013-03-23 20:13:00,
2013-03-23 13:28:00,65.2,39.0,30.06,West,264,1.0,4.0,39,0.01,,,0.02,weatherlink.com 1.10,2013-03-23 20:28:00,
2013-03-23 13:43:00,65.2,37.0,30.06,SW,227,0.0,3.0,36,0.01,,,0.02,weatherlink.com 1.10,2013-03-23 20:43:00,
2013-03-23 13:58:00,65.9,38.0,30.05,South,176,0.0,3.0,36,0.01,,,0.02,weatherlink.com 1.10,2013-03-23 20:58:00,
2013-03-23 14:13:00,66.1,38.0,30.05,WSW,257,3.0,5.0,35,0.01,,,0.02,weatherlink.com 1.10,2013-03-23 21:13:00,
2013-03-23 14:28:00,66.1,36.0,30.04,ENE,60,1.0,7.0,33,0.00,,,0.02,weatherlink.com 1.10,2013-03-23 21:28:00,
2013-03-23 14:43:00,67.1,44.0,30.03,WSW,250,3.0,8.0,43,0.00,,,0.02,weatherlink.com 1.10,2013-03-23 21:43:00,
2013-03-23 14:58:00,65.4,42.0,30.03,WSW,252,2.0,8.0,42,0.00,,,0.02,weatherlink.com 1.10,2013-03-23 21:58:00,
2013-03-23 15:13:00,64.7,40.0,30.02,SW,234,4.0,8.0,40,0.00,,,0.02,weatherlink.com 1.10,2013-03-23 22:13:00,
2013-03-23 15:28:00,64.8,40.0,30.03,West,269,3.0,9.0,40,0.00,,,0.02,weatherlink.com 1.10,2013-03-23 22:28:00,
2013-03-23 15:43:00,64.7,42.0,30.02,West,268,1.0,9.0,43,0.00,,,0.02,weatherlink.com 1.10,2013-03-23 22:43:00,
2013-03-23 15:58:00,64.6,40.0,30.02,SW,227,5.0,10.0,41,0.00,,,0.02,weatherlink.com 1.10,2013-03-23 22:58:00,
2013-03-23 16:13:00,64.6,41.0,30.02,West,271,4.0,9.0,42,0.00,,,0.02,weatherlink.com 1.10,2013-03-23 23:13:00,
2013-03-23 16:28:00,65.2,40.0,30.02,West,267,1.0,8.0,40,0.00,,,0.02,weatherlink.com 1.10,2013-03-23 23:28:00,
2013-03-23 16:43:00,65.8,43.0,30.01,WSW,240,3.0,8.0,43,0.00,,,0.02,weatherlink.com 1.10,2013-03-23 23:43:00,
2013-03-23 16:58:00,65.7,42.0,30.01,SW,232,0.0,7.0,43,0.00,,,0.02,weatherlink.com 1.10,2013-03-23 23:58:00,
2013-03-23 17:13:00,65.6,42.0,30.00,WSW,244,3.0,6.0,42,0.00,,,0.02,weatherlink.com 1.10,2013-03-24 00:13:00,
2013-03-23 17:28:00,65.2,43.0,30.01,WSW,238,0.0,6.0,44,0.00,,,0.02,weatherlink.com 1.10,2013-03-24 00:28:00,
2013-03-23 18:44:00,61.5,42.0,30.01,SW,216,0.0,3.0,49,0.00,,,0.02,weatherlink.com 1.10,2013-03-24 01:44:00,
2013-03-23 18:59:00,60.0,40.0,30.01,SSW,213,0.0,1.0,48,0.00,,,0.02,weatherlink.com 1.10,2013-03-24 01:59:00,
2013-03-23 19:14:00,57.8,40.0,30.01,SSW,211,0.0,1.0,52,0.00,,,0.02,weatherlink.com 1.10,2013-03-24 02:14:00,
2013-03-23 19:29:00,56.0,44.0,30.02,SSW,208,0.0,2.0,65,0.00,,,0.02,weatherlink.com 1.10,2013-03-24 02:29:00,
2013-03-23 19:43:00,54.2,44.0,30.02,SSW,201,0.0,1.0,68,0.00,,,0.02,weatherlink.com 1.10,2013-03-24 02:43:00,
2013-03-23 19:59:00,52.2,44.0,30.02,SE,137,0.0,1.0,73,0.00,,,0.02,weatherlink.com 1.10,2013-03-24 02:59:00,
2013-03-23 20:14:00,50.9,44.0,30.02,SE,142,0.0,0.0,76,0.00,,,0.02,weatherlink.com 1.10,2013-03-24 03:14:00,
2013-03-23 20:29:00,49.9,44.0,30.02,SE,142,0.0,0.0,79,0.00,,,0.02,weatherlink.com 1.10,2013-03-24 03:29:00,
2013-03-23 20:44:00,49.1,43.0,30.03,SE,142,0.0,0.0,80,0.00,,,0.02,weatherlink.com 1.10,2013-03-24 03:44:00,
2013-03-23 20:59:00,48.6,43.0,30.03,SE,142,0.0,0.0,82,0.00,,,0.02,weatherlink.com 1.10,2013-03-24 03:59:00,
2013-03-23 21:14:00,47.8,43.0,30.04,SE,142,0.0,0.0,83,0.00,,,0.02,weatherlink.com 1.10,2013-03-24 04:14:00,
2013-03-23 21:29:00,47.3,43.0,30.05,SE,142,0.0,0.0,84,0.00,,,0.02,weatherlink.com 1.10,2013-03-24 04:29:00,
2013-03-23 21:44:00,46.7,43.0,30.05,SE,124,0.0,1.0,86,0.00,,,0.02,weatherlink.com 1.10,2013-03-24 04:44:00,
2013-03-23 21:59:00,46.1,42.0,30.05,ESE,123,0.0,0.0,86,0.00,,,0.02,weatherlink.com 1.10,2013-03-24 04:59:00,
2013-03-23 22:14:00,45.7,42.0,30.05,ESE,123,0.0,0.0,88,0.00,,,0.02,weatherlink.com 1.10,2013-03-24 05:14:00,
2013-03-23 22:29:00,45.3,42.0,30.05,ESE,123,0.0,0.0,88,0.00,,,0.02,weatherlink.com 1.10,2013-03-24 05:29:00,
2013-03-23 22:44:00,45.0,42.0,30.05,ESE,123,0.0,0.0,89,0.00,,,0.02,weatherlink.com 1.10,2013-03-24 05:44:00,
2013-03-23 22:59:00,45.0,42.0,30.05,North,354,0.0,1.0,90,0.00,,,0.02,weatherlink.com 1.10,2013-03-24 05:59:00,
2013-03-23 23:14:00,45.0,42.0,30.05,WNW,296,0.0,2.0,89,0.00,,,0.02,weatherlink.com 1.10,2013-03-24 06:14:00,
2013-03-23 23:30:00,44.7,42.0,30.05,NW,306,0.0,2.0,90,0.00,,,0.02,weatherlink.com 1.10,2013-03-24 06:30:00,
2013-03-23 23:44:00,44.4,41.0,30.05,NW,306,0.0,0.0,89,0.00,,,0.02,weatherlink.com 1.10,2013-03-24 06:44:00,
2013-03-23 23:59:00,44.2,42.0,30.05,NW,306,0.0,0.0,90,0.00,,,0.00,weatherlink.com 1.10,2013-03-24 06:59:00,